| time (UTC) | temp F | wind direction | speed MPH | gust MPH | rain 1hr in | rain 24hr in | rain mn in | humidity % | barometer mb |
| 20260902073037 | 63 | 55 | 2.0 | 8.0 | 0.00 | 0.12 | 0.00 | 91 | 1018.5 |
| 20260902071544 | 63 | 126 | 1.0 | 8.0 | 0.00 | 0.12 | 0.00 | 91 | 1018.5 |
| 20260902070040 | 63 | 85 | 0.0 | 5.0 | 0.00 | 0.12 | 0.00 | 91 | 1018.7 |
| 20260902064539 | 63 | 49 | 0.0 | 4.0 | 0.00 | 0.32 | 0.00 | 91 | 1018.8 |
| 20260902063039 | 63 | 82 | 0.0 | 5.0 | 0.00 | 0.32 | 0.00 | 91 | 1018.8 |
| 20260902061547 | 63 | 0 | 0.0 | 3.0 | 0.00 | 0.32 | 0.00 | 91 | 1018.9 |
| 20260902060039 | 63 | 211 | 3.0 | 8.0 | 0.00 | 0.32 | 0.00 | 91 | 1018.9 |
| 20260902054541 | 63 | 94 | 2.0 | 7.0 | 0.00 | 0.51 | 0.00 | 90 | 1018.9 |
| 20260902053041 | 64 | 105 | 1.0 | 5.0 | 0.00 | 0.51 | 0.00 | 90 | 1018.8 |
| 20260902051544 | 64 | 80 | 1.0 | 4.0 | 0.00 | 0.51 | 0.00 | 90 | 1018.8 |
| 20260902050052 | 64 | 69 | 0.0 | 4.0 | 0.00 | 0.51 | 0.00 | 90 | 1018.9 |
| 20260902044603 | 64 | 89 | 1.0 | 4.0 | 0.00 | 0.70 | 0.00 | 90 | 1018.7 |
| 20260902043039 | 64 | 74 | 1.0 | 5.0 | 0.00 | 0.70 | 0.00 | 90 | 1018.6 |
| 20260902041540 | 64 | 278 | 0.0 | 9.0 | 0.00 | 0.70 | 0.00 | 90 | 1018.4 |
| 20260902040046 | 64 | 69 | 3.0 | 9.0 | 0.00 | 0.70 | 0.00 | 90 | 1018.3 |
| 20260902034551 | 64 | 55 | 3.0 | 15.0 | 0.00 | 0.70 | 0.70 | 90 | 1018.3 |
| 20260902033040 | 65 | 140 | 2.0 | 9.0 | 0.00 | 0.70 | 0.70 | 90 | 1018.0 |
| 20260902031544 | 65 | 85 | 4.0 | 9.0 | 0.00 | 0.70 | 0.70 | 89 | 1017.8 |
| 20260902030040 | 65 | 96 | 3.0 | 10.0 | 0.00 | 0.70 | 0.70 | 89 | 1017.4 |
| 20260902024547 | 65 | 105 | 3.0 | 9.0 | 0.00 | 0.70 | 0.70 | 89 | 1017.8 |
| 20260902023043 | 65 | 68 | 2.0 | 9.0 | 0.00 | 0.70 | 0.70 | 89 | 1017.8 |
| 20260902021549 | 65 | 96 | 2.0 | 12.0 | 0.00 | 0.70 | 0.70 | 89 | 1017.4 |
| 20260902020044 | 65 | 44 | 3.0 | 9.0 | 0.00 | 0.70 | 0.70 | 88 | 1017.2 |
| 20260902014542 | 65 | 290 | 5.0 | 12.0 | 0.00 | 0.70 | 0.70 | 88 | 1016.6 |
| 20260902013039 | 66 | 40 | 5.0 | 11.0 | 0.00 | 0.70 | 0.70 | 88 | 1016.5 |
| 20260902011537 | 66 | 103 | 5.0 | 13.0 | 0.00 | 0.70 | 0.70 | 88 | 1016.5 |
| 20260902010044 | 66 | 107 | 5.0 | 14.0 | 0.00 | 0.70 | 0.70 | 88 | 1016.4 |
| 20260902004541 | 67 | 106 | 2.0 | 14.0 | 0.00 | 0.70 | 0.70 | 89 | 1016.3 |
| 20260902003043 | 67 | 100 | 8.0 | 15.0 | 0.00 | 0.70 | 0.70 | 89 | 1016.1 |
| 20260902001538 | 67 | 80 | 8.0 | 16.0 | 0.00 | 0.70 | 0.70 | 89 | 1015.6 |
| 20260902000040 | 68 | 86 | 3.0 | 14.0 | 0.00 | 0.70 | 0.70 | 90 | 1015.6 |
| 20260901234539 | 68 | 91 | 5.0 | 11.0 | 0.00 | 0.70 | 0.70 | 90 | 1015.8 |
| 20260901233041 | 69 | 69 | 6.0 | 10.0 | 0.00 | 0.70 | 0.70 | 90 | 1015.6 |
| 20260901231540 | 69 | 131 | 5.0 | 15.0 | 0.00 | 0.70 | 0.70 | 90 | 1015.5 |
| 20260901230041 | 70 | 84 | 3.0 | 12.0 | 0.00 | 0.70 | 0.70 | 90 | 1015.2 |
| 20260901224540 | 71 | 82 | 2.0 | 12.0 | 0.00 | 0.70 | 0.70 | 90 | 1015.1 |
| 20260901223046 | 71 | 107 | 5.0 | 13.0 | 0.00 | 0.70 | 0.70 | 90 | 1014.5 |
| 20260901221539 | 72 | 80 | 5.0 | 14.0 | 0.00 | 0.70 | 0.70 | 90 | 1014.6 |
| 20260901220044 | 74 | 131 | 5.0 | 10.0 | 0.00 | 0.70 | 0.70 | 90 | 1014.4 |
| 20260901214542 | 74 | 126 | 2.0 | 7.0 | 0.00 | 0.70 | 0.70 | 89 | 1014.5 |
| 20260901213101 | 75 | 95 | 2.0 | 5.0 | 0.00 | 0.70 | 0.70 | 89 | 1014.6 |
| 20260901211538 | 76 | 123 | 2.0 | 4.0 | 0.00 | 0.70 | 0.70 | 89 | 1014.3 |
| 20260901210040 | 76 | 90 | 1.0 | 4.0 | 0.00 | 0.70 | 0.70 | 89 | 1014.3 |
| 20260901204546 | 76 | 102 | 0.0 | 2.0 | 0.00 | 0.70 | 0.70 | 89 | 1014.4 |
| 20260901203040 | 76 | 81 | 0.0 | 4.0 | 0.00 | 0.70 | 0.70 | 89 | 1014.4 |
| 20260901201540 | 76 | 98 | 0.0 | 2.0 | 0.00 | 0.70 | 0.70 | 88 | 1014.4 |
| 20260901200042 | 77 | 157 | 1.0 | 3.0 | 0.00 | 0.70 | 0.70 | 87 | 1014.4 |
| 20260901194541 | 77 | 75 | 1.0 | 3.0 | 0.00 | 0.70 | 0.70 | 87 | 1014.4 |
| 20260901193037 | 77 | 85 | 1.0 | 3.0 | 0.00 | 0.70 | 0.70 | 87 | 1014.4 |
| 20260901191541 | 80 | 0 | 0.0 | 1.0 | 0.00 | 0.70 | 0.70 | 84 | 1014.3 |
| 20260901190041 | 79 | 0 | 0.0 | 2.0 | 0.00 | 0.70 | 0.70 | 85 | 1014.3 |
| 20260901184546 | 78 | 0 | 0.0 | 0.0 | 0.00 | 0.70 | 0.70 | 88 | 1014.3 |
| 20260901183039 | 77 | 0 | 0.0 | 2.0 | 0.00 | 0.70 | 0.70 | 89 | 1014.4 |
| 20260901181541 | 76 | 107 | 0.0 | 2.0 | 0.01 | 0.70 | 0.70 | 92 | 1014.6 |
| 20260901180040 | 74 | 0 | 0.0 | 2.0 | 0.03 | 0.70 | 0.70 | 92 | 1014.5 |
| 20260901174539 | 74 | 149 | 1.0 | 4.0 | 0.03 | 0.70 | 0.70 | 93 | 1014.3 |
| 20260901173045 | 73 | 0 | 0.0 | 0.0 | 0.03 | 0.70 | 0.70 | 93 | 1014.7 |
| 20260901171601 | 72 | 0 | 0.0 | 4.0 | 0.01 | 0.68 | 0.68 | 93 | 1015.0 |
| 20260901170038 | 72 | 161 | 0.0 | 2.0 | 0.01 | 0.67 | 0.67 | 92 | 1014.9 |
| 20260901164544 | 72 | 115 | 0.0 | 2.0 | 0.02 | 0.67 | 0.67 | 92 | 1015.2 |
| 20260901163041 | 72 | 80 | 0.0 | 3.0 | 0.03 | 0.67 | 0.67 | 92 | 1015.3 |
| 20260901161541 | 72 | 110 | 2.0 | 4.0 | 0.05 | 0.67 | 0.67 | 92 | 1015.4 |
| 20260901160039 | 72 | 0 | 0.0 | 2.0 | 0.06 | 0.66 | 0.66 | 93 | 1015.6 |
| 20260901154534 | 71 | 215 | 1.0 | 2.0 | 0.05 | 0.65 | 0.65 | 92 | 1016.2 |
| 20260901153046 | 71 | 0 | 0.0 | 2.0 | 0.05 | 0.64 | 0.64 | 92 | 1016.3 |
| 20260901151542 | 71 | 205 | 1.0 | 3.0 | 0.04 | 0.62 | 0.62 | 92 | 1016.2 |
| 20260901150107 | 71 | 0 | 0.0 | 2.0 | 0.02 | 0.60 | 0.60 | 92 | 1016.1 |
| 20260901144542 | 71 | 0 | 0.0 | 0.0 | 0.02 | 0.60 | 0.60 | 92 | 1016.2 |
| 20260901143041 | 71 | 0 | 0.0 | 2.0 | 0.01 | 0.58 | 0.58 | 92 | 1016.3 |
| 20260901141542 | 71 | 78 | 0.0 | 2.0 | 0.00 | 0.58 | 0.58 | 92 | 1016.4 |
| 20260901140040 | 71 | 0 | 0.0 | 0.0 | 0.00 | 0.58 | 0.58 | 92 | 1016.2 |
| 20260901134553 | 71 | 0 | 0.0 | 0.0 | 0.00 | 0.58 | 0.58 | 92 | 1015.9 |
| 20260901133042 | 71 | 0 | 0.0 | 0.0 | 0.00 | 0.58 | 0.58 | 92 | 1016.0 |
| 20260901131539 | 70 | 0 | 0.0 | 0.0 | 0.00 | 0.58 | 0.58 | 92 | 1016.1 |
| 20260901130042 | 71 | 0 | 0.0 | 2.0 | 0.00 | 0.58 | 0.58 | 93 | 1016.1 |
| 20260901124545 | 70 | 72 | 0.0 | 2.0 | 0.00 | 0.58 | 0.58 | 93 | 1016.0 |
| 20260901123042 | 70 | 0 | 0.0 | 2.0 | 0.00 | 0.58 | 0.58 | 92 | 1016.2 |
| 20260901121543 | 70 | 0 | 0.0 | 2.0 | 0.00 | 0.58 | 0.58 | 92 | 1016.1 |
| 20260901120040 | 70 | 0 | 0.0 | 0.0 | 0.00 | 0.58 | 0.58 | 92 | 1016.3 |
| 20260901114552 | 69 | 212 | 0.0 | 2.0 | 0.00 | 0.58 | 0.58 | 92 | 1016.0 |
| 20260901113039 | 69 | 0 | 0.0 | 0.0 | 0.00 | 0.58 | 0.58 | 92 | 1016.1 |
| 20260901111544 | 69 | 0 | 0.0 | 0.0 | 0.00 | 0.58 | 0.58 | 92 | 1016.0 |
| 20260901110044 | 69 | 0 | 0.0 | 0.0 | 0.00 | 0.58 | 0.58 | 92 | 1016.1 |
| 20260901104540 | 69 | 0 | 0.0 | 0.0 | 0.00 | 0.58 | 0.58 | 92 | 1016.4 |
| 20260901103042 | 68 | 0 | 0.0 | 0.0 | 0.00 | 0.58 | 0.58 | 92 | 1016.4 |
| 20260901101545 | 68 | 0 | 0.0 | 0.0 | 0.00 | 0.58 | 0.58 | 92 | 1016.1 |
| 20260901100047 | 68 | 0 | 0.0 | 0.0 | 0.00 | 0.58 | 0.58 | 92 | 1015.8 |
| 20260901094543 | 68 | 0 | 0.0 | 0.0 | 0.00 | 0.58 | 0.58 | 92 | 1016.1 |
| 20260901093041 | 68 | 0 | 0.0 | 0.0 | 0.00 | 0.58 | 0.58 | 92 | 1016.1 |
| 20260901091548 | 68 | 0 | 0.0 | 0.0 | 0.00 | 0.58 | 0.58 | 92 | 1016.2 |
| 20260901090040 | 68 | 0 | 0.0 | 0.0 | 0.00 | 0.58 | 0.58 | 92 | 1016.4 |
| 20260901084542 | 68 | 0 | 0.0 | 0.0 | 0.00 | 0.58 | 0.58 | 92 | 1016.5 |
| 20260901083044 | 68 | 0 | 0.0 | 0.0 | 0.00 | 0.58 | 0.58 | 92 | 1016.4 |
| 20260901081544 | 68 | 0 | 0.0 | 2.0 | 0.00 | 0.58 | 0.58 | 92 | 1016.4 |
| 20260901080042 | 68 | 0 | 0.0 | 2.0 | 0.00 | 0.58 | 0.58 | 92 | 1016.5 |
| 20260901074548 | 68 | 0 | 0.0 | 2.0 | 0.00 | 0.58 | 0.58 | 91 | 1016.7 |